Location: Colonia Mina de C?rbuni
(46.1667°N, 22.7167°E)
Time: 14:50:37
(UTC+00:00)

Vanguard 1 Rocket - Pass Details

Date: 16 April 2024
Orbit: 650 x 4220 km, 34.3° (Epoch: 22 May)

Event Time Altitude Azimuth Distance (km) Brightness Sun altitude
Exits shadow 01:15:33 18° 196° (SSW) 6,026 11.0 -22.4°
Drops below altitude 10° 01:24:07 10° 176° (S) 7,184 11.6 -21.3°
Sets 01:32:47 0° 163° (SSE) 8,435 12.1 -20.2°
